Jackson, MI

5:47 AM EST on November 22, 2019 (GMT -0500)
Jackson County-Reynolds

Weather History for KJXN - August, 2019

Change the Weather History Date:

Wednesday, August 7, 2019

  Actual Average Record
Temperature  
Mean Temperature 72 °F 70 °F  
Max Temperature 84 °F 81 °F 95 °F (1984)
Min Temperature 60 °F 60 °F 45 °F (1989)
Degree Days  
Heating Degree Days 0 1  
Month to date heating degree days 0 3  
Since 1 June heating degree days 58 69  
Since 1 July heating degree days 0 14  
Cooling Degree Days 7 6  
Month to date cooling degree days 39 42  
Year to date cooling degree days 444 407  
Since 1 June cooling degree days 434 370  
Growing Degree Days 22 (Base 50)    
Moisture  
Dew Point 63 °F    
Average Humidity 73    
Maximum Humidity 100    
Minimum Humidity 46    
Precipitation  
Precipitation 0.00 in 0.11 in 1.14 in (1986)
Month to date precipitation 0.10 0.81  
Year to date precipitation 20.29 18.26  
Sea Level Pressure  
Sea Level Pressure 29.82 in    
Wind  
Wind Speed 4 mph (SW)    
Max Wind Speed 13 mph    
Max Gust Speed 19 mph    
Visibility 5 miles    
Events Fog    
T = Trace of Precipitation, MM = Missing Value Source: NWS Daily Summary

Daily Weather History Graph

Daily Weather History Graph

Search for Another Location

Airport or City:

Astronomy

Aug. 07, 2019 Rise Set
Actual Time 6:36 AM EDT 8:49 PM EDT
Civil Twilight 6:05 AM EDT 9:20 PM EDT
Nautical Twilight 5:27 AM EDT 9:59 PM EDT
Astronomical Twilight 4:44 AM EDT 10:41 PM EDT
Moon 2:16 PM EDT (8/7) 12:28 AM EDT (8/7)
Length of Visible Light 15h 15m
Length of Day
14h 13m
Waxing Crescent, 49% of the Moon is Illuminated
Aug 7
Waxing Crescent
Aug 7
First Quarter
Aug 15
Full
Aug 23
Last Quarter
Aug 30
New

Hourly Weather History & Observations

Time (EDT) Temp. Heat Index Dew Point Humidity Pressure Visibility Wind Dir Wind Speed Gust Speed Precip Events Conditions
12:56 AM 68.0 °F - 66.9 °F 96% 29.81 in 10.0 mi Calm Calm - N/A   Overcast
1:56 AM 66.9 °F - 66.0 °F 97% 29.80 in 10.0 mi Calm Calm - N/A   Overcast
2:36 AM 64.9 °F - 64.9 °F 100% 29.82 in 1.8 mi SW 3.5 mph - N/A   Clear
2:54 AM 64.4 °F - 64.4 °F 100% 29.82 in 1.2 mi SW 3.5 mph - N/A   Clear
2:56 AM 64.0 °F - 64.0 °F 100% 29.81 in 1.0 mi SW 3.5 mph - N/A   Clear
3:09 AM 64.0 °F - 64.0 °F 100% 29.82 in 0.8 mi Calm Calm - N/A   Clear
3:19 AM 64.0 °F - 64.0 °F 100% 29.83 in 0.2 mi Calm Calm - N/A Fog Fog
3:29 AM 64.0 °F - 64.0 °F 100% 29.83 in 1.0 mi SW 3.5 mph - N/A   Clear
3:38 AM 63.0 °F - 63.0 °F 100% 29.83 in 0.5 mi SW 3.5 mph - N/A Fog Fog
3:56 AM 62.1 °F - 62.1 °F 100% 29.81 in 0.5 mi SW 4.6 mph - N/A Fog Fog
4:12 AM 62.1 °F - 62.1 °F 100% 29.82 in 0.2 mi SW 4.6 mph - N/A Fog Fog
4:20 AM 62.1 °F - 62.1 °F 100% 29.82 in 0.2 mi Calm Calm - N/A Fog Fog
4:56 AM 63.0 °F - 63.0 °F 100% 29.82 in 0.2 mi SSW 3.5 mph - N/A Fog Fog
5:56 AM 61.0 °F - 61.0 °F 100% 29.81 in 0.2 mi SW 3.5 mph - N/A Fog Fog
6:26 AM 61.0 °F - 61.0 °F 100% 29.83 in 0.2 mi Calm Calm - N/A Fog Fog
6:56 AM 61.0 °F - 61.0 °F 100% 29.83 in 0.2 mi SW 4.6 mph - N/A Fog Fog
7:49 AM 63.0 °F - 63.0 °F 100% 29.85 in 0.2 mi WSW 4.6 mph - N/A Fog Fog
7:56 AM 63.0 °F - 63.0 °F 100% 29.83 in 0.2 mi WSW 4.6 mph - N/A Fog Fog
8:17 AM 64.0 °F - 64.0 °F 100% 29.85 in 0.5 mi WSW 5.8 mph - N/A Fog Fog
8:46 AM 64.9 °F - 64.9 °F 100% 29.85 in 4.0 mi Calm Calm - N/A   Overcast
8:56 AM 64.9 °F - 64.9 °F 100% 29.84 in 5.0 mi South 3.5 mph - N/A   Overcast
9:39 AM 66.9 °F - 66.0 °F 97% 29.85 in 9.0 mi SW 5.8 mph - N/A   Scattered Clouds
9:56 AM 69.1 °F - 66.9 °F 93% 29.84 in 10.0 mi SW 5.8 mph - N/A   Partly Cloudy
10:56 AM 73.9 °F - 64.9 °F 73% 29.85 in 10.0 mi West 4.6 mph - N/A   Clear
11:56 AM 77.0 °F - 62.1 °F 60% 29.85 in 10.0 mi WNW 6.9 mph - N/A   Clear
12:56 PM 81.0 °F 81.7 °F 61.0 °F 50% 29.83 in 10.0 mi WNW 4.6 mph - N/A   Clear
1:56 PM 81.0 °F 81.3 °F 59.0 °F 47% 29.83 in 10.0 mi WSW 5.8 mph - N/A   Clear
2:56 PM 82.0 °F 82.1 °F 59.0 °F 45% 29.82 in 10.0 mi North - - N/A   Partly Cloudy
3:56 PM 81.0 °F 81.6 °F 60.1 °F 49% 29.80 in 10.0 mi West 3.5 mph - N/A   Partly Cloudy
4:56 PM 82.0 °F 83.1 °F 63.0 °F 52% 29.79 in 10.0 mi SSW 5.8 mph - N/A   Scattered Clouds
5:56 PM 80.1 °F 81.7 °F 64.0 °F 58% 29.79 in 10.0 mi SW 5.8 mph - N/A   Partly Cloudy
6:56 PM 80.1 °F 81.5 °F 63.0 °F 56% 29.78 in 10.0 mi WSW 6.9 mph - N/A   Partly Cloudy
7:56 PM 78.1 °F - 64.0 °F 62% 29.78 in 10.0 mi WSW 4.6 mph - N/A   Mostly Cloudy
8:56 PM 72.0 °F - 62.1 °F 71% 29.79 in 10.0 mi WSW 3.5 mph - N/A   Clear
9:56 PM 68.0 °F - 61.0 °F 78% 29.79 in 10.0 mi Calm Calm - N/A   Clear
10:56 PM 66.9 °F - 61.0 °F 81% 29.78 in 10.0 mi Calm Calm - N/A   Clear
11:56 PM 66.0 °F - 61.0 °F 84% 29.79 in 10.0 mi SSW 3.5 mph - N/A   Clear